Starlink 5260

operational
NORAD ID: 55275 Int'l Des: 2023-010 Owner: SPXS Country: US Constellation: starlink
LEOCIRCULAR

About Starlink 5260

Description loading...

Live Position

Loading 3D Globe...

Upcoming Passes

Altitude History

Altitude vs Time

uPlot chart will show altitude changes over time

Two-Line Element Set

1 55275U 23010G 25303.28914135 .00002301 00000-0 20055-3 0 9997
2 55275 70.0017 353.3594 0003220 270.7725 89.3065 14.98332184153744
Epoch: Oct 30, 2025 • Age: 17 hours

Current Status

Altitude 595.3 km
Velocity 7.56 km/s
Sub-Earth Point -69.91°S, 132.3°W
Launch Date Jan 19, 2023
Age 2.7 years
Type internet

Technical Details

Classification Payload
Mass 305.00 kg
Dry Mass 290.00 kg
Total Mass 305.00 kg
Length 0.20 m
Diameter 2.80 m
Span 9.00 m
Shape Box + pan
Manufacturer SPXS
Bus Type Starlink
Phase Status In Orbit
Owner/State SPXS/US

Large Constellations

Loading constellations...